Wetterdaten: Woche 14.12.15 - 20.12.15 (KW51)
Datum Zeit Temp. Aussen Temp. o. S. +5cm Feuchte Auss BlattFeu 1 Luftdruck Regen Sonnenschein Regendauer Solar Windben Empfang
14.12.2015 00:00 6,8 C 6,8 C 5,6 C 98 % 15 lf 1021,1 hPa 0,0 l/m 0,00 h 0,02 h 0 W/m 7,9 km/h (2 Bft) 96,36 %
14.12.2015 01:00 6,9 C 7,2 C 5,7 C 98 % 15 lf 1021,0 hPa 0,0 l/m 0,00 h 0,00 h 0 W/m 6,6 km/h (2 Bft) 94,59 %
14.12.2015 02:00 7,1 C 7,2 C 6,1 C 98 % 15 lf 1020,9 hPa 0,0 l/m 0,00 h 0,00 h 0 W/m 6,2 km/h (2 Bft) 95,80 %
14.12.2015 03:00 7,2 C 7,2 C 6,1 C 98 % 15 lf 1020,8 hPa 0,0 l/m 0,00 h 0,00 h 0 W/m 6,7 km/h (2 Bft) 97,79 %
14.12.2015 04:00 7,3 C 7,2 C 6,1 C 99 % 15 lf 1020,5 hPa 0,0 l/m 0,00 h 0,00 h 0 W/m 7,8 km/h (2 Bft) 81,85 %
14.12.2015 05:00 7,3 C 7,2 C 6,1 C 99 % 15 lf 1020,3 hPa 0,0 l/m 0,00 h 0,00 h 0 W/m 8,9 km/h (2 Bft) 94,26 %
14.12.2015 06:00 7,2 C 7,2 C 6,1 C 99 % 15 lf 1020,0 hPa 0,0 l/m 0,00 h 0,00 h 0 W/m 9,8 km/h (2 Bft) 97,66 %
14.12.2015 07:00 7,0 C 7,2 C 5,6 C 99 % 15 lf 1019,8 hPa 0,0 l/m 0,00 h 0,00 h 0 W/m 10,9 km/h (2 Bft) 96,64 %
14.12.2015 08:00 6,9 C 7,2 C 5,7 C 99 % 15 lf 1019,9 hPa 0,0 l/m 0,10 h 0,00 h 12 W/m 10,0 km/h (2 Bft) 94,33 %
14.12.2015 09:00 6,9 C 7,2 C 5,7 C 99 % 15 lf 1019,8 hPa 0,0 l/m 0,67 h 0,00 h 59 W/m 13,3 km/h (3 Bft) 97,45 %
14.12.2015 10:00 7,0 C 7,9 C 5,8 C 99 % 2 lf 1019,9 hPa 0,0 l/m 0,57 h 0,00 h 94 W/m 15,2 km/h (3 Bft) 94,17 %
14.12.2015 11:00 7,9 C 12,2 C 6,5 C 99 % 0 lf 1019,8 hPa 0,0 l/m 0,90 h 0,00 h 191 W/m 14,3 km/h (3 Bft) 97,86 %
14.12.2015 12:00 9,1 C 12,5 C 7,4 C 95 % 0 lf 1019,3 hPa 0,0 l/m 0,97 h 0,00 h 232 W/m 18,8 km/h (3 Bft) 96,35 %
14.12.2015 13:00 9,7 C 12,5 C 7,9 C 88 % 0 lf 1018,6 hPa 0,0 l/m 1,00 h 0,00 h 180 W/m 18,6 km/h (3 Bft) 96,15 %
14.12.2015 14:00 9,5 C 10,7 C 7,8 C 89 % 0 lf 1018,2 hPa 0,0 l/m 0,30 h 0,00 h 87 W/m 13,8 km/h (3 Bft) 96,58 %
14.12.2015 15:00 9,3 C 9,8 C 8,1 C 89 % 0 lf 1018,1 hPa 0,0 l/m 0,10 h 0,00 h 38 W/m 14,9 km/h (3 Bft) 93,87 %
14.12.2015 16:00 9,0 C 8,5 C 6,7 C 88 % 0 lf 1018,2 hPa 0,0 l/m 0,00 h 0,00 h 8 W/m 10,4 km/h (2 Bft) 97,60 %
14.12.2015 17:00 7,8 C 7,0 C 4,7 C 90 % 0 lf 1018,3 hPa 0,0 l/m 0,00 h 0,00 h 19 W/m 6,0 km/h (2 Bft) 96,55 %
14.12.2015 18:00 6,7 C 6,4 C 4,3 C 92 % 1 lf 1018,6 hPa 0,0 l/m 0,00 h 0,00 h 15 W/m 7,1 km/h (2 Bft) 95,76 %
14.12.2015 19:00 6,0 C 5,8 C 4,0 C 93 % 1 lf 1018,9 hPa 0,0 l/m 0,00 h 0,00 h 13 W/m 7,4 km/h (2 Bft) 94,86 %
14.12.2015 20:00 5,6 C 5,6 C 4,0 C 94 % 0 lf 1019,3 hPa 0,0 l/m 0,00 h 0,00 h 11 W/m 10,0 km/h (2 Bft) 97,38 %
14.12.2015 21:00 5,3 C 5,5 C 3,9 C 94 % 0 lf 1019,5 hPa 0,0 l/m 0,00 h 0,00 h 11 W/m 9,0 km/h (2 Bft) 96,56 %
14.12.2015 22:00 5,0 C 5,0 C 3,5 C 94 % 0 lf 1019,7 hPa 0,0 l/m 0,00 h 0,00 h 14 W/m 7,5 km/h (2 Bft) 94,76 %
14.12.2015 23:00 4,6 C 4,4 C 3,1 C 95 % 1 lf 1019,8 hPa 0,0 l/m 0,00 h 0,00 h 9 W/m 7,5 km/h (2 Bft) 96,02 %
15.12.2015 00:00 4,5 C 4,6 C 3,3 C 95 % 0 lf 1019,8 hPa 0,0 l/m 0,00 h 0,00 h 5 W/m 8,4 km/h (2 Bft) 92,95 %
15.12.2015 01:00 4,5 C 5,0 C 3,3 C 96 % 0 lf 1019,6 hPa 0,0 l/m 0,00 h 0,00 h 5 W/m 8,3 km/h (2 Bft) 95,20 %
15.12.2015 02:00 4,7 C 5,0 C 3,7 C 96 % 0 lf 1019,8 hPa 0,0 l/m 0,00 h 0,00 h 5 W/m 9,8 km/h (2 Bft) 97,30 %
15.12.2015 03:00 5,0 C 5,5 C 4,1 C 96 % 0 lf 1020,1 hPa 0,2 l/m 0,00 h 0,00 h 5 W/m 10,4 km/h (2 Bft) 95,52 %
15.12.2015 04:00 5,4 C 5,6 C 4,4 C 96 % 0 lf 1020,0 hPa 0,0 l/m 0,00 h 0,03 h 7 W/m 9,1 km/h (2 Bft) 94,97 %
15.12.2015 05:00 5,4 C 5,6 C 4,2 C 96 % 0 lf 1020,3 hPa 0,0 l/m 0,00 h 0,00 h 7 W/m 7,7 km/h (2 Bft) 99,07 %
15.12.2015 06:00 5,3 C 5,6 C 4,2 C 97 % 0 lf 1020,6 hPa 0,0 l/m 0,00 h 0,00 h 7 W/m 10,8 km/h (2 Bft) 94,89 %
15.12.2015 07:00 5,3 C 5,6 C 4,0 C 97 % 0 lf 1021,0 hPa 0,0 l/m 0,00 h 0,00 h 7 W/m 8,6 km/h (2 Bft) 95,04 %
15.12.2015 08:00 5,2 C 5,3 C 3,7 C 97 % 1 lf 1021,5 hPa 0,0 l/m 0,00 h 0,00 h 10 W/m 5,9 km/h (2 Bft) 97,08 %
15.12.2015 09:00 5,2 C 5,8 C 4,3 C 97 % 0 lf 1021,8 hPa 0,0 l/m 0,50 h 0,00 h 51 W/m 8,6 km/h (2 Bft) 95,54 %
15.12.2015 10:00 5,7 C 7,5 C 5,0 C 97 % 0 lf 1022,2 hPa 0,0 l/m 0,80 h 0,00 h 123 W/m 6,4 km/h (2 Bft) 96,12 %
15.12.2015 11:00 7,1 C 11,6 C 6,3 C 98 % 0 lf 1022,2 hPa 0,0 l/m 1,00 h 0,00 h 191 W/m 11,2 km/h (2 Bft) 97,55 %
15.12.2015 12:00 8,7 C 12,5 C 7,6 C 94 % 0 lf 1022,1 hPa 0,0 l/m 0,97 h 0,00 h 216 W/m 10,1 km/h (2 Bft) 94,92 %
15.12.2015 13:00 9,9 C 13,6 C 8,3 C 89 % 0 lf 1022,1 hPa 0,0 l/m 0,87 h 0,00 h 161 W/m 8,0 km/h (2 Bft) 93,34 %
15.12.2015 14:00 10,1 C 10,4 C 8,0 C 87 % 0 lf 1022,1 hPa 0,0 l/m 0,13 h 0,00 h 79 W/m 7,4 km/h (2 Bft) 96,52 %
15.12.2015 15:00 9,5 C 9,7 C 7,6 C 89 % 0 lf 1022,2 hPa 0,0 l/m 0,57 h 0,00 h 56 W/m 8,1 km/h (2 Bft) 96,79 %
15.12.2015 16:00 8,6 C 8,0 C 5,9 C 90 % 0 lf 1022,5 hPa 0,0 l/m 0,03 h 0,00 h 10 W/m 7,0 km/h (2 Bft) 96,02 %
15.12.2015 17:00 7,7 C 7,2 C 4,7 C 91 % 0 lf 1022,7 hPa 0,0 l/m 0,00 h 0,00 h 5 W/m 6,4 km/h (2 Bft) 94,95 %
15.12.2015 18:00 7,1 C 7,2 C 4,9 C 93 % 0 lf 1022,9 hPa 0,0 l/m 0,00 h 0,00 h 5 W/m 11,4 km/h (2 Bft) 97,94 %
15.12.2015 19:00 7,4 C 7,8 C 6,1 C 94 % 0 lf 1023,0 hPa 0,0 l/m 0,00 h 0,07 h 5 W/m 13,0 km/h (3 Bft) 96,51 %
15.12.2015 20:00 7,7 C 7,7 C 6,1 C 94 % 1 lf 1022,8 hPa 0,0 l/m 0,00 h 0,17 h 5 W/m 15,2 km/h (3 Bft) 94,53 %
15.12.2015 21:00 7,6 C 7,8 C 6,1 C 95 % 0 lf 1022,7 hPa 0,0 l/m 0,00 h 0,00 h 5 W/m 11,7 km/h (2 Bft) 95,86 %
15.12.2015 22:00 7,7 C 7,9 C 6,7 C 95 % 0 lf 1022,6 hPa 0,0 l/m 0,00 h 0,00 h 5 W/m 12,8 km/h (3 Bft) 97,09 %
15.12.2015 23:00 8,0 C 8,3 C 6,8 C 95 % 0 lf 1022,6 hPa 0,0 l/m 0,00 h 0,00 h 5 W/m 16,0 km/h (3 Bft) 95,45 %
16.12.2015 00:00 8,2 C 8,1 C 6,9 C 95 % 1 lf 1022,6 hPa 0,0 l/m 0,00 h 0,40 h 5 W/m 16,3 km/h (3 Bft) 95,56 %
16.12.2015 01:00 8,2 C 8,2 C 6,7 C 95 % 0 lf 1022,2 hPa 0,0 l/m 0,00 h 0,03 h 5 W/m 18,3 km/h (3 Bft) 95,74 %
16.12.2015 02:00 8,5 C 8,1 C 6,7 C 95 % 6 lf 1022,0 hPa 0,4 l/m 0,00 h 1,00 h 5 W/m 14,1 km/h (3 Bft) 96,15 %
16.12.2015 03:00 8,6 C 8,3 C 6,7 C 95 % 5 lf 1021,8 hPa 0,2 l/m 0,00 h 0,97 h 5 W/m 16,0 km/h (3 Bft) 96,58 %
16.12.2015 04:00 8,4 C 8,0 C 6,7 C 96 % 4 lf 1021,3 hPa 0,6 l/m 0,00 h 1,00 h 5 W/m 19,4 km/h (3 Bft) 95,40 %
16.12.2015 05:00 8,3 C 8,3 C 6,8 C 97 % 10 lf 1021,0 hPa 1,0 l/m 0,00 h 0,97 h 5 W/m 18,1 km/h (3 Bft) 95,51 %
16.12.2015 06:00 8,4 C 8,3 C 7,2 C 98 % 14 lf 1020,9 hPa 0,6 l/m 0,00 h 0,67 h 5 W/m 15,6 km/h (3 Bft) 96,15 %
16.12.2015 07:00 8,6 C 8,5 C 7,2 C 98 % 15 lf 1020,9 hPa 0,4 l/m 0,00 h 0,63 h 5 W/m 12,6 km/h (3 Bft) 97,87 %
16.12.2015 08:00 9,0 C 9,2 C 7,8 C 99 % 15 lf 1020,9 hPa 0,0 l/m 0,00 h 0,10 h 8 W/m 12,6 km/h (3 Bft) 94,00 %
16.12.2015 09:00 9,4 C 9,5 C 8,3 C 99 % 15 lf 1021,2 hPa 0,0 l/m 0,03 h 0,00 h 20 W/m 10,0 km/h (2 Bft) 96,03 %
16.12.2015 10:00 9,8 C 10,0 C 8,8 C 99 % 15 lf 1021,5 hPa 0,2 l/m 0,00 h 0,47 h 21 W/m 9,5 km/h (2 Bft) 97,72 %
16.12.2015 11:00 10,3 C 10,5 C 9,1 C 99 % 15 lf 1021,6 hPa 1,6 l/m 0,00 h 1,00 h 35 W/m 9,7 km/h (2 Bft) 96,09 %
16.12.2015 12:00 11,2 C 11,7 C 10,2 C 99 % 15 lf 1021,3 hPa 0,2 l/m 0,00 h 0,30 h 73 W/m 15,1 km/h (3 Bft) 92,86 %
16.12.2015 13:00 11,7 C 11,7 C 10,6 C 99 % 15 lf 1021,2 hPa 0,2 l/m 0,00 h 0,57 h 51 W/m 17,7 km/h (3 Bft) 98,07 %
16.12.2015 14:00 11,8 C 11,9 C 10,6 C 99 % 15 lf 1021,3 hPa 0,0 l/m 0,00 h 0,00 h 36 W/m 17,8 km/h (3 Bft) 95,24 %
16.12.2015 15:00 11,9 C 11,7 C 10,6 C 100 % 15 lf 1021,4 hPa 0,0 l/m 0,00 h 0,30 h 18 W/m 16,6 km/h (3 Bft) 96,73 %
16.12.2015 16:00 11,9 C 11,7 C 10,6 C 100 % 15 lf 1021,5 hPa 0,2 l/m 0,00 h 0,53 h 8 W/m 15,3 km/h (3 Bft) 95,52 %
16.12.2015 17:00 11,9 C 11,7 C 10,6 C 100 % 15 lf 1021,6 hPa 0,2 l/m 0,00 h 0,40 h 5 W/m 15,1 km/h (3 Bft) 96,38 %
16.12.2015 18:00 11,9 C 11,7 C 10,6 C 100 % 15 lf 1022,0 hPa 0,2 l/m 0,00 h 0,33 h 5 W/m 16,4 km/h (3 Bft) 96,30 %
16.12.2015 19:00 11,9 C 11,9 C 10,6 C 100 % 15 lf 1022,3 hPa 0,4 l/m 0,00 h 0,47 h 5 W/m 14,3 km/h (3 Bft) 97,16 %
16.12.2015 20:00 12,1 C 12,2 C 10,6 C 99 % 15 lf 1022,5 hPa 0,2 l/m 0,00 h 0,33 h 5 W/m 19,0 km/h (3 Bft) 93,85 %
16.12.2015 21:00 12,3 C 12,2 C 10,6 C 100 % 15 lf 1022,7 hPa 0,0 l/m 0,00 h 0,00 h 5 W/m 25,5 km/h (4 Bft) 96,72 %
16.12.2015 22:00 12,4 C 12,2 C 10,6 C 99 % 15 lf 1022,8 hPa 0,2 l/m 0,00 h 0,00 h 5 W/m 24,6 km/h (4 Bft) 97,37 %
16.12.2015 23:00 12,4 C 12,2 C 10,6 C 99 % 15 lf 1023,2 hPa 0,0 l/m 0,00 h 0,00 h 5 W/m 21,3 km/h (4 Bft) 94,88 %
17.12.2015 00:00 12,3 C 12,2 C 10,6 C 99 % 15 lf 1023,3 hPa 0,0 l/m 0,00 h 0,17 h 5 W/m 16,4 km/h (3 Bft) 91,88 %
17.12.2015 01:00 12,4 C 12,2 C 10,6 C 99 % 15 lf 1023,1 hPa 0,0 l/m 0,00 h 0,10 h 5 W/m 18,0 km/h (3 Bft) 96,93 %
17.12.2015 02:00 12,4 C 12,2 C 10,6 C 98 % 6 lf 1023,0 hPa 0,0 l/m 0,00 h 0,23 h 5 W/m 17,6 km/h (3 Bft) 96,28 %
17.12.2015 03:00 12,5 C 12,2 C 10,8 C 97 % 0 lf 1022,9 hPa 0,0 l/m 0,00 h 0,00 h 5 W/m 15,6 km/h (3 Bft) 95,58 %
17.12.2015 04:00 12,7 C 12,5 C 11,1 C 96 % 0 lf 1022,7 hPa 0,0 l/m 0,00 h 0,00 h 5 W/m 17,1 km/h (3 Bft) 96,73 %
17.12.2015 05:00 12,8 C 12,9 C 11,1 C 95 % 0 lf 1022,3 hPa 0,0 l/m 0,00 h 0,00 h 5 W/m 15,2 km/h (3 Bft) 94,19 %
17.12.2015 06:00 12,8 C 12,8 C 11,1 C 95 % 0 lf 1022,3 hPa 0,0 l/m 0,00 h 0,00 h 5 W/m 15,2 km/h (3 Bft) 98,65 %
17.12.2015 07:00 12,8 C 12,8 C 11,1 C 95 % 0 lf 1022,0 hPa 0,0 l/m 0,00 h 0,00 h 5 W/m 12,4 km/h (3 Bft) 94,63 %
17.12.2015 08:00 12,8 C 13,0 C 11,2 C 95 % 0 lf 1022,0 hPa 0,0 l/m 0,00 h 0,00 h 7 W/m 11,8 km/h (2 Bft) 95,08 %
17.12.2015 09:00 13,0 C 13,5 C 11,6 C 95 % 0 lf 1022,1 hPa 0,0 l/m 0,00 h 0,10 h 31 W/m 12,6 km/h (3 Bft) 97,86 %
17.12.2015 10:00 13,4 C 14,9 C 12,1 C 93 % 0 lf 1022,3 hPa 0,0 l/m 0,37 h 0,00 h 97 W/m 12,4 km/h (3 Bft) 97,02 %
17.12.2015 11:00 14,6 C 17,2 C 13,4 C 89 % 0 lf 1022,0 hPa 0,0 l/m 0,47 h 0,00 h 136 W/m 16,2 km/h (3 Bft) 93,18 %
17.12.2015 12:00 15,1 C 16,2 C 13,3 C 86 % 0 lf 1021,6 hPa 0,0 l/m 0,07 h 0,00 h 112 W/m 19,7 km/h (3 Bft) 98,45 %
17.12.2015 13:00 15,7 C 18,7 C 13,6 C 83 % 0 lf 1021,1 hPa 0,0 l/m 0,63 h 0,00 h 148 W/m 19,3 km/h (3 Bft) 95,64 %
17.12.2015 14:00 15,9 C 17,5 C 13,4 C 81 % 0 lf 1020,6 hPa 0,0 l/m 0,43 h 0,00 h 91 W/m 17,8 km/h (3 Bft) 95,65 %
17.12.2015 15:00 15,6 C 15,9 C 13,1 C 82 % 0 lf 1020,1 hPa 0,0 l/m 0,53 h 0,00 h 49 W/m 14,0 km/h (3 Bft) 95,73 %
17.12.2015 16:00 15,2 C 15,1 C 12,8 C 84 % 0 lf 1019,9 hPa 0,0 l/m 0,07 h 0,00 h 9 W/m 13,2 km/h (3 Bft) 97,08 %
17.12.2015 17:00 14,7 C 14,0 C 11,6 C 85 % 0 lf 1019,7 hPa 0,0 l/m 0,00 h 0,00 h 0 W/m 7,9 km/h (2 Bft) 95,74 %
17.12.2015 18:00 14,1 C 14,3 C 11,8 C 88 % 0 lf 1019,7 hPa 0,0 l/m 0,00 h 0,00 h 0 W/m 11,6 km/h (2 Bft) 95,32 %
17.12.2015 19:00 14,5 C 14,7 C 12,5 C 86 % 0 lf 1019,4 hPa 0,0 l/m 0,00 h 0,00 h 0 W/m 13,3 km/h (3 Bft) 96,16 %
17.12.2015 20:00 14,2 C 13,8 C 11,6 C 85 % 0 lf 1018,9 hPa 0,0 l/m 0,00 h 0,00 h 0 W/m 9,9 km/h (2 Bft) 97,58 %
17.12.2015 21:00 13,4 C 13,0 C 11,0 C 88 % 0 lf 1018,6 hPa 0,0 l/m 0,00 h 0,00 h 0 W/m 10,4 km/h (2 Bft) 94,59 %
17.12.2015 22:00 12,7 C 12,6 C 10,8 C 91 % 0 lf 1018,3 hPa 0,0 l/m 0,00 h 0,00 h 0 W/m 12,6 km/h (3 Bft) 96,51 %
17.12.2015 23:00 12,4 C 12,6 C 11,1 C 93 % 0 lf 1018,3 hPa 0,0 l/m 0,00 h 0,00 h 0 W/m 9,6 km/h (2 Bft) 96,15 %
18.12.2015 00:00 12,4 C 12,8 C 10,7 C 93 % 0 lf 1018,0 hPa 0,0 l/m 0,00 h 0,17 h 0 W/m 7,8 km/h (2 Bft) 96,16 %
18.12.2015 01:00 13,0 C 13,9 C 11,6 C 90 % 0 lf 1017,8 hPa 0,0 l/m 0,00 h 0,00 h 0 W/m 14,5 km/h (3 Bft) 95,02 %
18.12.2015 02:00 13,9 C 14,0 C 12,2 C 84 % 0 lf 1018,0 hPa 0,0 l/m 0,00 h 0,00 h 0 W/m 19,7 km/h (3 Bft) 96,36 %
18.12.2015 03:00 13,8 C 13,9 C 12,1 C 85 % 0 lf 1018,4 hPa 0,0 l/m 0,00 h 0,07 h 0 W/m 20,9 km/h (4 Bft) 95,51 %
18.12.2015 04:00 13,5 C 13,5 C 11,7 C 87 % 0 lf 1018,8 hPa 0,0 l/m 0,00 h 0,00 h 0 W/m 17,5 km/h (3 Bft) 98,57 %
18.12.2015 05:00 13,1 C 13,1 C 11,5 C 88 % 0 lf 1019,1 hPa 0,0 l/m 0,00 h 0,00 h 0 W/m 15,5 km/h (3 Bft) 93,71 %
18.12.2015 06:00 12,8 C 12,8 C 11,1 C 90 % 0 lf 1019,5 hPa 0,0 l/m 0,00 h 0,00 h 0 W/m 14,2 km/h (3 Bft) 96,21 %
18.12.2015 07:00 12,4 C 12,5 C 11,1 C 90 % 0 lf 1020,0 hPa 0,0 l/m 0,00 h 0,00 h 0 W/m 14,8 km/h (3 Bft) 97,51 %
18.12.2015 08:00 12,2 C 12,2 C 10,6 C 90 % 0 lf 1020,7 hPa 0,0 l/m 0,00 h 0,00 h 8 W/m 17,7 km/h (3 Bft) 95,52 %
18.12.2015 09:00 12,1 C 12,2 C 10,7 C 89 % 0 lf 1021,4 hPa 0,0 l/m 0,00 h 0,00 h 21 W/m 16,4 km/h (3 Bft) 94,45 %
18.12.2015 10:00 12,2 C 12,8 C 11,1 C 86 % 0 lf 1022,2 hPa 0,0 l/m 0,00 h 0,00 h 37 W/m 17,5 km/h (3 Bft) 97,60 %
18.12.2015 11:00 12,4 C 12,9 C 11,5 C 86 % 0 lf 1022,3 hPa 0,0 l/m 0,00 h 0,00 h 66 W/m 20,1 km/h (4 Bft) 95,46 %
18.12.2015 12:00 12,6 C 13,5 C 11,7 C 82 % 0 lf 1022,1 hPa 0,0 l/m 0,00 h 0,00 h 92 W/m 22,7 km/h (4 Bft) 95,61 %
18.12.2015 13:00 12,8 C 13,3 C 11,5 C 80 % 0 lf 1022,1 hPa 0,0 l/m 0,00 h 0,00 h 58 W/m 20,0 km/h (4 Bft) 96,80 %
18.12.2015 14:00 12,4 C 12,8 C 11,1 C 81 % 0 lf 1022,2 hPa 0,0 l/m 0,00 h 0,00 h 35 W/m 16,1 km/h (3 Bft) 95,02 %
18.12.2015 15:00 12,2 C 12,2 C 10,6 C 82 % 0 lf 1022,1 hPa 0,0 l/m 0,00 h 0,00 h 14 W/m 10,7 km/h (2 Bft) 97,36 %
18.12.2015 16:00 12,1 C 12,2 C 10,6 C 83 % 0 lf 1022,3 hPa 0,0 l/m 0,00 h 0,00 h 6 W/m 10,3 km/h (2 Bft) 95,38 %
18.12.2015 17:00 11,9 C 12,2 C 10,6 C 85 % 0 lf 1022,3 hPa 0,0 l/m 0,00 h 0,00 h 0 W/m 10,5 km/h (2 Bft) 94,80 %
18.12.2015 18:00 11,8 C 11,9 C 10,3 C 86 % 0 lf 1022,1 hPa 0,0 l/m 0,00 h 0,00 h 0 W/m 10,9 km/h (2 Bft) 96,64 %
18.12.2015 19:00 11,6 C 11,7 C 10,0 C 88 % 0 lf 1022,0 hPa 0,0 l/m 0,00 h 0,00 h 0 W/m 9,8 km/h (2 Bft) 98,46 %
18.12.2015 20:00 11,5 C 11,7 C 10,0 C 87 % 0 lf 1021,9 hPa 0,0 l/m 0,00 h 0,00 h 0 W/m 11,7 km/h (2 Bft) 93,00 %
18.12.2015 21:00 11,6 C 11,9 C 10,2 C 87 % 0 lf 1022,0 hPa 0,0 l/m 0,00 h 0,00 h 0 W/m 13,6 km/h (3 Bft) 97,64 %
18.12.2015 22:00 11,6 C 11,7 C 10,0 C 87 % 0 lf 1021,8 hPa 0,0 l/m 0,00 h 0,00 h 0 W/m 14,7 km/h (3 Bft) 96,63 %
18.12.2015 23:00 11,4 C 11,5 C 10,0 C 87 % 0 lf 1021,6 hPa 0,0 l/m 0,00 h 0,00 h 0 W/m 13,6 km/h (3 Bft) 95,34 %
19.12.2015 00:00 11,0 C 11,0 C 9,3 C 88 % 0 lf 1021,3 hPa 0,0 l/m 0,00 h 0,00 h 0 W/m 12,6 km/h (3 Bft) 94,59 %
19.12.2015 01:00 10,7 C 10,9 C 9,5 C 90 % 0 lf 1021,1 hPa 0,0 l/m 0,00 h 0,00 h 0 W/m 12,5 km/h (3 Bft) 97,29 %
19.12.2015 02:00 11,3 C 11,7 C 10,1 C 92 % 0 lf 1021,0 hPa 0,0 l/m 0,00 h 0,00 h 0 W/m 16,9 km/h (3 Bft) 94,81 %
19.12.2015 03:00 11,6 C 11,6 C 10,0 C 92 % 0 lf 1020,6 hPa 0,0 l/m 0,00 h 0,00 h 0 W/m 16,5 km/h (3 Bft) 97,86 %
19.12.2015 04:00 11,2 C 11,1 C 9,4 C 91 % 0 lf 1020,5 hPa 0,0 l/m 0,00 h 0,00 h 0 W/m 15,5 km/h (3 Bft) 94,65 %
19.12.2015 05:00 10,8 C 10,9 C 9,3 C 92 % 0 lf 1020,3 hPa 0,0 l/m 0,00 h 0,00 h 0 W/m 13,9 km/h (3 Bft) 95,23 %
19.12.2015 06:00 10,8 C 10,9 C 9,4 C 92 % 0 lf 1020,2 hPa 0,0 l/m 0,00 h 0,00 h 0 W/m 13,3 km/h (3 Bft) 98,58 %
19.12.2015 07:00 10,6 C 10,6 C 8,9 C 92 % 0 lf 1020,1 hPa 0,0 l/m 0,00 h 0,00 h 0 W/m 13,8 km/h (3 Bft) 95,17 %
19.12.2015 08:00 10,3 C 10,6 C 8,9 C 92 % 0 lf 1020,0 hPa 0,0 l/m 0,10 h 0,00 h 10 W/m 13,4 km/h (3 Bft) 94,91 %
19.12.2015 09:00 10,4 C 10,8 C 8,9 C 92 % 0 lf 1020,6 hPa 0,0 l/m 0,63 h 0,00 h 47 W/m 12,3 km/h (3 Bft) 96,94 %
19.12.2015 10:00 10,9 C 12,3 C 10,0 C 91 % 0 lf 1020,7 hPa 0,0 l/m 1,00 h 0,00 h 126 W/m 13,0 km/h (3 Bft) 96,58 %
19.12.2015 11:00 13,0 C 16,2 C 12,5 C 89 % 0 lf 1020,6 hPa 0,0 l/m 0,77 h 0,00 h 170 W/m 15,6 km/h (3 Bft) 95,85 %
19.12.2015 12:00 14,8 C 16,4 C 14,1 C 85 % 0 lf 1020,3 hPa 0,0 l/m 0,90 h 0,00 h 164 W/m 15,3 km/h (3 Bft) 97,56 %
19.12.2015 13:00 16,1 C 20,5 C 15,2 C 82 % 0 lf 1019,8 hPa 0,0 l/m 1,00 h 0,00 h 250 W/m 14,2 km/h (3 Bft) 95,25 %
19.12.2015 14:00 16,7 C 17,7 C 14,9 C 79 % 0 lf 1019,6 hPa 0,0 l/m 0,70 h 0,00 h 107 W/m 16,1 km/h (3 Bft) 94,79 %
19.12.2015 15:00 15,9 C 16,0 C 14,0 C 81 % 0 lf 1019,3 hPa 0,0 l/m 0,17 h 0,00 h 44 W/m 15,1 km/h (3 Bft) 98,45 %
19.12.2015 16:00 15,2 C 14,9 C 13,0 C 82 % 0 lf 1019,2 hPa 0,0 l/m 0,23 h 0,00 h 13 W/m 16,5 km/h (3 Bft) 94,80 %
19.12.2015 17:00 14,1 C 13,7 C 11,9 C 84 % 0 lf 1019,3 hPa 0,0 l/m 0,00 h 0,00 h 5 W/m 13,5 km/h (3 Bft) 97,09 %
19.12.2015 18:00 13,2 C 12,8 C 11,2 C 86 % 0 lf 1019,1 hPa 0,0 l/m 0,00 h 0,00 h 11 W/m 12,6 km/h (3 Bft) 94,75 %
19.12.2015 19:00 12,1 C 11,9 C 10,2 C 89 % 0 lf 1018,8 hPa 0,0 l/m 0,00 h 0,00 h 18 W/m 15,5 km/h (3 Bft) 95,34 %
19.12.2015 20:00 11,5 C 11,6 C 9,9 C 91 % 0 lf 1018,5 hPa 0,0 l/m 0,00 h 0,00 h 38 W/m 17,7 km/h (3 Bft) 97,29 %
19.12.2015 21:00 11,2 C 11,1 C 9,5 C 92 % 0 lf 1018,0 hPa 0,0 l/m 0,00 h 0,00 h 53 W/m 16,0 km/h (3 Bft) 96,46 %
19.12.2015 22:00 11,2 C 11,5 C 9,8 C 93 % 0 lf 1017,5 hPa 0,0 l/m 0,00 h 0,00 h 30 W/m 19,4 km/h (3 Bft) 93,05 %
19.12.2015 23:00 11,2 C 11,2 C 9,6 C 92 % 0 lf 1017,0 hPa 0,0 l/m 0,00 h 0,00 h 30 W/m 20,1 km/h (4 Bft) 97,86 %
20.12.2015 00:00 10,8 C 10,8 C 9,4 C 92 % 0 lf 1016,3 hPa 0,0 l/m 0,00 h 0,00 h 30 W/m 20,5 km/h (4 Bft) 97,00 %
20.12.2015 01:00 10,6 C 10,6 C 9,4 C 92 % 0 lf 1016,0 hPa 0,0 l/m 0,00 h 0,00 h 30 W/m 19,6 km/h (3 Bft) 93,94 %
20.12.2015 02:00 10,5 C 10,6 C 9,0 C 92 % 0 lf 1016,0 hPa 0,0 l/m 0,00 h 0,00 h 30 W/m 20,0 km/h (4 Bft) 96,73 %
20.12.2015 03:00 10,3 C 10,6 C 8,9 C 92 % 0 lf 1015,7 hPa 0,0 l/m 0,00 h 0,00 h 29 W/m 19,6 km/h (3 Bft) 96,30 %
20.12.2015 04:00 10,3 C 10,6 C 8,9 C 91 % 0 lf 1015,1 hPa 0,0 l/m 0,00 h 0,00 h 30 W/m 22,7 km/h (4 Bft) 96,36 %
20.12.2015 05:00 10,2 C 10,6 C 8,9 C 91 % 0 lf 1014,6 hPa 0,0 l/m 0,00 h 0,00 h 32 W/m 25,7 km/h (4 Bft) 96,69 %
20.12.2015 06:00 10,2 C 10,5 C 8,9 C 90 % 0 lf 1014,6 hPa 0,0 l/m 0,00 h 0,00 h 34 W/m 23,4 km/h (4 Bft) 94,92 %
20.12.2015 07:00 10,1 C 10,1 C 8,8 C 90 % 0 lf 1014,4 hPa 0,0 l/m 0,00 h 0,00 h 26 W/m 22,9 km/h (4 Bft) 95,46 %
20.12.2015 08:00 9,9 C 10,0 C 8,3 C 90 % 0 lf 1014,8 hPa 0,0 l/m 0,00 h 0,00 h 22 W/m 18,4 km/h (3 Bft) 99,01 %
20.12.2015 09:00 9,8 C 10,3 C 8,6 C 91 % 0 lf 1015,5 hPa 0,0 l/m 0,00 h 0,00 h 26 W/m 12,2 km/h (2 Bft) 93,38 %
20.12.2015 10:00 10,3 C 11,1 C 9,6 C 91 % 0 lf 1016,1 hPa 0,0 l/m 0,00 h 0,00 h 58 W/m 12,3 km/h (3 Bft) 96,30 %
20.12.2015 11:00 11,1 C 11,9 C 10,3 C 89 % 0 lf 1016,4 hPa 0,0 l/m 0,00 h 0,00 h 91 W/m 12,0 km/h (2 Bft) 97,15 %
20.12.2015 12:00 11,7 C 12,6 C 11,2 C 88 % 0 lf 1016,1 hPa 0,0 l/m 0,27 h 0,00 h 122 W/m 12,2 km/h (2 Bft) 95,12 %
20.12.2015 13:00 12,2 C 12,9 C 11,5 C 86 % 0 lf 1016,3 hPa 0,0 l/m 0,07 h 0,00 h 112 W/m 10,8 km/h (2 Bft) 95,01 %
20.12.2015 14:00 12,4 C 13,0 C 11,4 C 86 % 0 lf 1016,1 hPa 0,0 l/m 0,03 h 0,00 h 90 W/m 15,2 km/h (3 Bft) 98,65 %
20.12.2015 15:00 12,4 C 12,5 C 10,9 C 85 % 0 lf 1016,4 hPa 0,0 l/m 0,00 h 0,00 h 44 W/m 12,3 km/h (3 Bft) 94,02 %
20.12.2015 16:00 12,0 C 12,0 C 10,0 C 86 % 0 lf 1016,8 hPa 0,0 l/m 0,00 h 0,00 h 10 W/m 8,5 km/h (2 Bft) 97,30 %
20.12.2015 17:00 11,4 C 11,3 C 9,4 C 87 % 0 lf 1016,9 hPa 0,0 l/m 0,00 h 0,00 h 7 W/m 7,6 km/h (2 Bft) 95,29 %
20.12.2015 18:00 11,1 C 11,1 C 9,4 C 88 % 0 lf 1017,1 hPa 0,0 l/m 0,00 h 0,00 h 7 W/m 8,3 km/h (2 Bft) 95,03 %
20.12.2015 19:00 11,0 C 11,6 C 9,6 C 89 % 0 lf 1017,4 hPa 0,0 l/m 0,00 h 0,00 h 7 W/m 11,9 km/h (2 Bft) 98,01 %
20.12.2015 20:00 12,4 C 13,0 C 11,1 C 84 % 0 lf 1017,4 hPa 0,0 l/m 0,00 h 0,00 h 7 W/m 20,1 km/h (4 Bft) 96,80 %
20.12.2015 21:00 12,9 C 13,0 C 11,1 C 81 % 0 lf 1017,7 hPa 0,0 l/m 0,00 h 0,00 h 7 W/m 21,5 km/h (4 Bft) 93,02 %
20.12.2015 22:00 12,8 C 12,8 C 11,1 C 81 % 0 lf 1017,9 hPa 0,0 l/m 0,00 h 0,00 h 7 W/m 17,1 km/h (3 Bft) 98,58 %
20.12.2015 23:00 12,6 C 12,8 C 11,1 C 82 % 0 lf 1018,0 hPa 0,0 l/m 0,00 h 0,17 h 7 W/m 18,7 km/h (3 Bft) 96,52 %
Min-Datum _ 14.12.15 14.12.15 14.12.15 19.12.15 14.12.15 20.12.15 - - - - 14.12.15 14.12.15
_ Min-Zeit 23:38 23:26 23:10 14:08 10:30 07:14 - - - - 04:02 04:02
Minimum _ 4,4 C 3,9 C 2,8 C 78 % 0 lf 1014,3 hPa - - - - 0,0 km/h (0 Bft) 0,00 %
Max-Datum _ 19.12.15 19.12.15 19.12.15 16.12.15 14.12.15 16.12.15 16.12.15 14.12.15 15.12.15 19.12.15 20.12.15 14.12.15
_ Max-Zeit 14:02 13:56 13:12 12:30 00:00 23:54 11:00 08:54 04:20 13:06 21:18 00:06
Maximum _ 16,9 C 23,3 C 16,1 C 100 % 15 lf 1023,5 hPa 1,6 l/m 0,03 h 0,03 h 328 W/m 37,7 km/h
S-SW (5 Bft)
100,00 %
Durchschnitt _ 10,6 C 10,9 C 9,1 C 92 % 3 lf 1020,1 hPa #7,0 l/m #17:56 h #11:47 h 41 W/m 13,9 km/h (3 Bft) 95,92 %
© 2015 W. Hausmann